Regional Weather Roundup
Issued by NWS

Home | Current Version | Previous Version | Graphics & Text | Print | Product List | Glossary On
Versions: 1 2 3 4 5 6 7 8 9 10 11 12 13 14 15 16 17 18 19 20 21 22 23 24 25 26 27 28 29 30 31 32 33 34 35 36 37 38 39 40 41 42 43 44 45 46 47 48 49 50
000
ASUS43 KLSX 230707
RWRMO

WEATHER SUMMARY FOR MISSOURI
NATIONAL WEATHER SERVICE SPRINGFIELD MO
200 AM CDT SAT MAY 23 2015

NOTE: "FAIR" INDICATES FEW OR NO CLOUDS BELOW 12,000 FEET WITH NO
       SIGNIFICANT WEATHER AND/OR OBSTRUCTIONS TO VISIBILITY.
       CURRENT SKY AND/OR WEATHER CONDITIONS ARE NOT AVAILABLE FOR
       CHILLICOTHE AND FARMINGTON.

MOZ001>031-035>038-043-044-053-054-230800-
...NORTHERN AND WESTERN MISSOURI...

CITY           SKY/WX    TMP DP  RH WIND       PRES   REMARKS
KANSAS CTY INT CLOUDY    61  52  72 S9        30.20S
KANSAS C DTWN  CLOUDY    63  50  62 SE6       30.19F
LEE`S SUMMIT   CLOUDY    62  50  64 S8        30.21S
ST JOSEPH      CLOUDY    60  51  72 SE7       30.20F
CHILLICOTHE      N/A     59  55  87 CALM      30.23F
KIRKSVILLE     PTCLDY    52  52 100 SE3       30.25R

$$
MOZ066>068-077>081-088>096-101>105-230800-
...SOUTHWEST MISSOURI...

CITY           SKY/WX    TMP DP  RH WIND       PRES   REMARKS
SPRINGFIELD    CLOUDY    60  48  64 SE12      30.22S
JOPLIN         CLOUDY    61  51  70 SE9       30.19F

$$
MOZ032>034-039>042-045>050-055>058-069>072-230800-
...CENTRAL MISSOURI...

CITY           SKY/WX    TMP DP  RH WIND       PRES   REMARKS
COLUMBIA       CLOUDY    61  52  72 SE6       30.25R
JEFFERSON CITY CLOUDY    62  53  72 E3        30.24S
ROLLA          CLOUDY    60  51  72 S7        30.24S
SEDALIA        CLOUDY    62  54  74 SE6       30.24S
WHITEMAN AFB   CLOUDY    61  53  76 SE3       30.21F
WARRENSBURG    CLOUDY    59  52  77 SE5       30.22S
OSAGE BEACH    CLOUDY    61  52  72 SE3       30.24S

$$
MOZ051-052-059>065-230800-
...EAST CENTRAL MISSOURI...

CITY           SKY/WX    TMP DP  RH WIND       PRES   REMARKS
ST LOUIS INTL  CLOUDY    64  52  64 E3        30.25S
SPIRIT OF STL  CLOUDY    59  57  93 CALM      30.24S
ST CHARLES     MOCLDY    60  56  86 CALM      30.24S

$$
MOZ072>076-082>087-097>100-106>115-230800-
...SOUTH CENTRAL AND SOUTHEAST MISSOURI...

CITY           SKY/WX    TMP DP  RH WIND       PRES   REMARKS
CAPE GIRARDEAU MOCLDY    59  57  93 CALM      30.25R
FARMINGTON     CLOUDY    59  52  77 CALM      30.30S
POPLAR BLUFF   MOCLDY    59  56  89 CALM      30.24S
WEST PLAINS    CLOUDY    58  49  72 CALM      30.27S

$$


USA.gov is the U.S. government's official web portal to all federal, state and local government web resources and services.